Regional Weather Roundup
Issued by NWS

Home | Current Version | Previous Version | Graphics & Text | Print | Product List | Glossary On
Versions: 1 2 3 4 5 6 7 8 9 10 11 12 13 14 15 16 17 18 19 20 21 22 23 24 25 26 27 28 29 30 31 32 33 34 35 36 37 38 39 40 41 42 43 44 45 46 47 48 49 50
000
ASUS43 KLOT 212200
RWRIL

ILLINOIS REGIONAL WEATHER ROUNDUP
NATIONAL WEATHER SERVICE CHICAGO/ROMEOVILLE IL
500 PM CDT THU AUG 21 2014

NOTE: "FAIR" INDICATES FEW OR NO CLOUDS BELOW 12,000 FEET WITH NO
SIGNIFICANT WEATHER AND/OR OBSTRUCTIONS TO VISIBILITY.

* THESE STATIONS ARE NOT UNDER NWS QUALITY CONTROL. THEY ALSO MAY NOT
  REPORT WEATHER SUCH AS PRECIPITATION OR FOG.

ILZ001-002-007-009-015-016-024-212300-
NORTHWEST ILLINOIS

CITY           SKY/WX    TMP DP  RH WIND       PRES   REMARKS
MOLINE         CLOUDY    82  72  71 E8        29.90S HX  87
STERLING*      CLOUDY    77  73  88 S6        29.89F
$$

ILZ003-004-008-010-011-017-018-212300-
NORTH CENTRAL ILLINOIS

CITY           SKY/WX    TMP DP  RH WIND       PRES   REMARKS
ROCKFORD       CLOUDY    77  74  90 SE12      29.90F
$$

ILZ005-006-012>014-019>023-212300-
NORTHEAST ILLINOIS

CITY           SKY/WX    TMP DP  RH WIND       PRES   REMARKS
CHICAGO-OHARE  CLOUDY    75  71  87 SE9       29.93F
CHICAGO-MIDWAY TSTM      77  75  93 E7        29.94F FOG
AURORA         LGT RAIN  76  73  91 SE6       29.92F FOG
WAUKEGAN       CLOUDY    73  70  90 SE9       29.92S FOG
DUPAGE AIRPORT LGT RAIN  76  71  85 S7        29.94F
WHEELING       CLOUDY    76  73  91 S10       29.94F FOG
NORTHERLY ISL    N/A     72  70  93 NE7         N/A
$$

LMZ740>746-212300-
SOUTHERN LAKE MICHIGAN

STATION/POSITION SKY/WX   TEMP    WIND        PRES    VSBY  WAVE
                          AIR SEA DIR/SP/G                  HT/PER
                          (F)     (DEG/KT/KT) (MB)    (MI)  (FT/S)
SOUTHERN BUOY              69 68  170/  8/ 10 1014.0R         1
WAUKEGAN HARBOR            72     170/ 11/ 13   N/A
HARRISON CRIB              72     100/ 12/ 13   N/A
BURNHAM HARBOR             73     350/  7/  9   N/A
CALUMET HARBOR             73      20/  9/ 12 1013.3R
BURNS HARBOR               77      80/ 11/ 16   N/A
MICHIGAN CITY              78     110/  4/  8   N/A
MICHIGAN CITY 6N           75 72  170/  4/  6   N/A           0
ST. JOSEPH                 75 71  330/  2/  2   N/A           1
$$

ILZ025>027-034>036-040-047-049-050-058-095>099-212300-
WEST-CENTRAL ILLINOIS

CITY           SKY/WX    TMP DP  RH WIND       PRES   REMARKS
QUINCY         PTSUNNY   90  75  61 SW7       29.90F HX 100
MACOMB*        PTSUNNY   85  78  77 SE6       29.93F HX  97
$$

ILZ028>032-037-038-041>044-048-051>054-059>061-212300-
CENTRAL ILLINOIS

CITY           SKY/WX    TMP DP  RH WIND       PRES   REMARKS
DECATUR        PTSUNNY   88  75  65 SW12      29.95S HX  97
PEORIA         CLOUDY    87  75  67 CALM      29.93S HX  96
SPRINGFIELD    CLOUDY    90  77  65 S8        29.93F HX 103
TAYLORVILLE    NOT AVBL
$$

ILZ033-039-045-046-055>057-062-063-212300-
EAST-CENTRAL ILLINOIS

CITY           SKY/WX    TMP DP  RH WIND       PRES   REMARKS
CHAMPAIGN      PTSUNNY   87  76  69 SW14      29.96S HX  97
MATTOON        PTSUNNY   86  75  69 S12G17    29.96F HX  95
$$

ILZ079-100>102-212300-
SOUTHWEST ILLINOIS

CITY           SKY/WX    TMP DP  RH WIND       PRES   REMARKS
ALTON          MOSUNNY   91  81  70 S9        29.94F HX 110
BELLEVILLE     PTSUNNY   91  78  66 E6        29.94F HX 105
CAHOKIA*       PTSUNNY   94  74  52 S6        29.93F HX 104
$$

ILZ064>066-069>071-074>076-080>082-084>086-088>090-092>094-212300-
SOUTH-CENTRAL ILLINOIS

CITY           SKY/WX    TMP DP  RH WIND       PRES   REMARKS
CARBONDALE     PTSUNNY   89  75  63 S8G18     29.98F HX  99
MT. VERNON     PTSUNNY   88  73  62 S9        29.98F HX  96
SALEM*         CLOUDY    89  77  69 S7        29.97F HX 101
$$

ILZ067-068-072-073-078-083-087-091-212300-
SOUTHEAST ILLINOIS

CITY           SKY/WX    TMP DP  RH WIND       PRES   REMARKS
LAWRENCEVILLE  PTSUNNY   89  77  67 S12       29.97F HX 101
HARRISBURG*    PTSUNNY   90  73  57 SW10      30.01S HX  97
ROBINSON*      PTSUNNY   88  78  70 SW9       29.97F HX 101
$$

ABBREVIATIONS USED IN REMARKS
   TC - TEMPERATURE IN CELSIUS
  WCI - WIND CHILL INDEX
   HX - HEAT INDEX
  VSB - VISIBILITY
$$



USA.gov is the U.S. government's official web portal to all federal, state and local government web resources and services.